Regional Weather Roundup
Issued by NWS

Home | Current Version | Previous Version | Graphics & Text | Print | Product List | Glossary On
Versions: 1 2 3 4 5 6 7 8 9 10 11 12 13 14 15 16 17 18 19 20 21 22 23 24 25 26 27 28 29 30 31 32 33 34 35 36 37 38 39 40 41 42 43 44 45 46 47 48 49 50
000
ASUS43 KLOT 121306
RWRIL

ILLINOIS REGIONAL WEATHER ROUNDUP
NATIONAL WEATHER SERVICE CHICAGO/ROMEOVILLE IL
800 AM CDT SAT JUL 12 2014

NOTE: "FAIR" INDICATES FEW OR NO CLOUDS BELOW 12,000 FEET WITH NO
SIGNIFICANT WEATHER AND/OR OBSTRUCTIONS TO VISIBILITY.

* THESE STATIONS ARE NOT UNDER NWS QUALITY CONTROL. THEY ALSO MAY NOT
  REPORT WEATHER SUCH AS PRECIPITATION OR FOG.

ILZ001-002-007-009-015-016-024-121400-
NORTHWEST ILLINOIS

CITY           SKY/WX    TMP DP  RH WIND       PRES   REMARKS
MOLINE         LGT RAIN  71  68  90 W5        30.00F
STERLING*      CLOUDY    70  66  88 W12       30.05S
SAVANNA*       HVY RAIN  71  68  89 W7        30.04S
$$

ILZ003-004-008-010-011-017-018-121400-
NORTH CENTRAL ILLINOIS

CITY           SKY/WX    TMP DP  RH WIND       PRES   REMARKS
ROCKFORD       CLOUDY    71  65  81 S5        30.06R
FREEPORT*      TSTM      69  66  92 CALM      30.07S
ROCHELLE*      RAIN      71  66  85 SW5       30.06R
DE KALB*       LGT RAIN  68  65  92 SE5       30.05S
PERU*          RAIN      73  70  88 W13G18    30.05R
$$

ILZ005-006-012>014-019>023-121400-
NORTHEAST ILLINOIS

CITY           SKY/WX    TMP DP  RH WIND       PRES   REMARKS
CHICAGO-OHARE  CLOUDY    70  65  84 S12       30.05R
CHICAGO-MIDWAY LGT RAIN  71  69  93 S9        30.06S FOG
AURORA         CLOUDY    71  66  84 SE6       30.06R HAZE
LANSING*       TSTM      68  65  89 CALM      30.10R
JOLIET*        CLOUDY    69  67  93 CALM      30.06S THUNDER FOG
WAUKEGAN       PTSUNNY   73  65  75 S9        30.03F
DUPAGE AIRPORT CLOUDY    70  67  90 S8        30.05R
KANKAKEE*      TSTM      69  67  96 SE5       30.09S
WHEELING       PTSUNNY   74  67  78 S12       30.06R
MORRIS*        CLOUDY    71  71 100 S5        30.04S FOG
ROMEOVILLE*    LGT RAIN  69  69  98 CALM      30.06R
NORTHERLY ISL    N/A     68  66  93 S10         N/A
$$

LMZ740>746-121400-
SOUTHERN LAKE MICHIGAN

STATION/POSITION SKY/WX   TEMP    WIND        PRES    VSBY  WAVE
                          AIR SEA DIR/SP/G                  HT/PER
                          (F)     (DEG/KT/KT) (MB)    (MI)  (FT/S)
SOUTHERN BUOY              62 58  140/ 10/ 10 1017.7S         1
WAUKEGAN HARBOR            68     170/  6/  7 1018.3S
HARRISON CRIB              68     190/ 19/ 22   N/A
BURNHAM HARBOR             69     170/  7/ 14   N/A
CALUMET HARBOR             68     190/  6/ 10 1018.7F
MICHIGAN CITY              73     160/ 14/ 18   N/A
$$

ILZ025>027-034>036-040-047-049-050-058-095>099-121400-
WEST-CENTRAL ILLINOIS

CITY           SKY/WX    TMP DP  RH WIND       PRES   REMARKS
QUINCY         MOSUNNY   80  73  79 SW8       30.06S HX  84
GALESBURG*     CLOUDY    75  70  83 NW8G17    30.06R
MACOMB*        CLOUDY    77  73  90 SW8       30.08R
JACKSONVILLE*  CLOUDY    79  74  86 S6        30.09R HX  82
PITTSFIELD*    PTSUNNY   79  73  80 SW6       30.09R HX  82
$$

ILZ028>032-037-038-041>044-048-051>054-059>061-121400-
CENTRAL ILLINOIS

CITY           SKY/WX    TMP DP  RH WIND       PRES   REMARKS
PONTIAC        TSTM      72  72 100 SE9G16    30.05S
BLOOMINGTON    LGT RAIN  70  66  88 S12       30.09R
DECATUR        CLOUDY    73  69  87 S12       30.11S
PEORIA         CLOUDY    78  72  81 SW8       30.04R HAZE    HX  80
LACON*         CLOUDY    74  70  87 SW3       30.02S THUNDER
LINCOLN*       CLOUDY    75  71  86 S8        30.05R
SPRINGFIELD    CLOUDY    78  73  84 SW7       30.08R HX  81
TAYLORVILLE    CLOUDY    72  70  94 SE9       30.10R
$$

ILZ033-039-045-046-055>057-062-063-121400-
EAST-CENTRAL ILLINOIS

CITY           SKY/WX    TMP DP  RH WIND       PRES   REMARKS
CHAMPAIGN      TSTM      71  70  96 S8G24     30.13R FOG
RANTOUL*       HVY RAIN  71  68  90 SW13      30.13R
MATTOON        TSTM      70  69  97 NW8       30.15R FOG
PARIS*         TSTM      69  68  94 S7        30.13F
$$

ILZ079-100>102-121400-
SOUTHWEST ILLINOIS

CITY           SKY/WX    TMP DP  RH WIND       PRES   REMARKS
ALTON          PTSUNNY   79  77  94 S9        30.11R HX  83
CAHOKIA*       CLOUDY    77  74  90 S3        30.11R
SPARTA*        CLOUDY    77  72  83 SW5       30.14R
$$

ILZ064>066-069>071-074>076-080>082-084>086-088>090-092>094-121400-
SOUTH-CENTRAL ILLINOIS

CITY           SKY/WX    TMP DP  RH WIND       PRES   REMARKS
CARBONDALE     CLOUDY    76  71  85 S5        30.14R
CAIRO*         MOSUNNY   77  71  83 S5        30.17R
MARION         CLOUDY    75  72  88 SE7       30.16R
MT. VERNON     CLOUDY    75  68  78 S6        30.15R
CENTRALIA*     CLOUDY    76  69  78 SW8       30.13R
SALEM*         CLOUDY    78  71  80 S6        30.13R HX  80
METROPOLIS*    PTSUNNY   76  69  78 CALM      30.16S
$$

ILZ067-068-072-073-078-083-087-091-121400-
SOUTHEAST ILLINOIS

CITY           SKY/WX    TMP DP  RH WIND       PRES   REMARKS
FLORA*         CLOUDY    72  69  89 S5        30.14R
HARRISBURG*    CLOUDY    74  71  91 CALM      30.16R
ROBINSON*      LGT RAIN  73  69  89 CALM      30.16R
CARMI*         CLOUDY    73  71  93 CALM      30.15R
$$

ABBREVIATIONS USED IN REMARKS
   TC - TEMPERATURE IN CELSIUS
  WCI - WIND CHILL INDEX
   HX - HEAT INDEX
  VSB - VISIBILITY
$$




USA.gov is the U.S. government's official web portal to all federal, state and local government web resources and services.